VIS871 LPPR-LEPA

Flight info

Callsign VIS871
Flight time 1h 56m
Altitude 31000
Route PESUL DCT RIVRO DCT BARDI/N0483F320 M191 DIPOL/N0490F400 M871 NVS/N0491F410 DCT NANDO DCT MINGU DCT ABOSI DCT MABUX DCT RETBA DCT MOPIR DCT LASPO/N0460F260 M871 GODOX
Aircraft B748/H-SDE3FGHIM1M2RWXY/LB1

Departure

Time 2026-05-03 20:15
Airport Francisco de Sá Carneiro Airport (LPPR)

Arrival

Time 2026-05-03 22:11
Airport Palma de Mallorca Airport (LEPA)
Time Latitude Longitude Altitude Speed Heading
2026-05-03 20:15 41.43412 -8.56324 10583 ft 352 kts 142°
2026-05-03 20:15 41.41236 -8.54606 10934 ft 379 kts 159°
2026-05-03 20:15 41.38796 -8.53137 11994 ft 385 kts 156°
2026-05-03 20:15 41.36382 -8.51605 13418 ft 384 kts 160°
2026-05-03 20:16 41.33892 -8.50382 14762 ft 379 kts 165°
2026-05-03 20:16 41.31473 -8.49144 16320 ft 368 kts 157°
2026-05-03 20:16 41.29283 -8.47428 17784 ft 363 kts 150°
2026-05-03 20:16 41.27190 -8.45388 18080 ft 390 kts 145°
2026-05-03 20:17 41.24980 -8.43034 17962 ft 423 kts 146°
2026-05-03 20:17 41.22600 -8.40718 17871 ft 427 kts 150°
2026-05-03 20:17 41.20093 -8.38691 18165 ft 420 kts 154°
2026-05-03 20:17 41.17603 -8.36709 18891 ft 416 kts 152°
2026-05-03 20:18 41.15189 -8.34600 19592 ft 416 kts 150°
2026-05-03 20:18 41.12786 -8.32454 20290 ft 416 kts 151°
2026-05-03 20:18 41.10363 -8.30381 21025 ft 413 kts 153°
2026-05-03 20:18 41.07941 -8.28350 21771 ft 411 kts 153°
2026-05-03 20:19 41.05546 -8.26307 22525 ft 408 kts 152°
2026-05-03 20:19 41.03176 -8.24261 23270 ft 405 kts 153°
2026-05-03 20:19 41.00858 -8.22275 23971 ft 400 kts 153°
2026-05-03 20:19 40.98528 -8.20296 24628 ft 396 kts 153°
2026-05-03 20:20 40.96227 -8.18338 25289 ft 390 kts 154°
2026-05-03 20:20 40.93976 -8.16417 25964 ft 383 kts 154°
2026-05-03 20:20 40.91759 -8.14507 26661 ft 378 kts 151°
2026-05-03 20:20 40.89798 -8.12200 27394 ft 379 kts 137°
2026-05-03 20:21 40.88272 -8.09367 28137 ft 378 kts 124°
2026-05-03 20:21 40.87263 -8.06164 28891 ft 377 kts 110°
2026-05-03 20:21 40.86647 -8.02849 29639 ft 365 kts 110°
2026-05-03 20:21 40.86071 -7.99655 30313 ft 351 kts 110°
2026-05-03 20:22 40.85530 -7.96628 30789 ft 338 kts 111°
2026-05-03 20:22 40.84986 -7.93638 30998 ft 332 kts 111°
2026-05-03 20:22 40.84438 -7.90662 30949 ft 337 kts 111°
2026-05-03 20:22 40.83881 -7.87618 30825 ft 344 kts 110°
2026-05-03 20:23 40.83322 -7.84520 30864 ft 347 kts 110°
2026-05-03 20:23 40.82193 -7.78314 31013 ft 349 kts 110°
2026-05-03 20:24 40.81037 -7.72013 31036 ft 358 kts 110°
2026-05-03 20:24 40.79854 -7.65567 31049 ft 370 kts 110°
2026-05-03 20:25 40.78616 -7.58846 31036 ft 384 kts 110°
2026-05-03 20:25 40.77320 -7.51844 31049 ft 401 kts 110°
2026-05-03 20:26 40.75964 -7.44533 31051 ft 420 kts 110°
2026-05-03 20:26 40.74545 -7.36920 31048 ft 440 kts 109°
2026-05-03 20:27 40.73046 -7.28905 31037 ft 460 kts 109°
2026-05-03 20:27 40.71475 -7.20533 31013 ft 480 kts 109°
2026-05-03 20:28 40.69832 -7.11829 31032 ft 499 kts 109°
2026-05-03 20:28 40.68130 -7.02844 31041 ft 518 kts 109°
2026-05-03 20:29 40.66364 -6.93552 31011 ft 524 kts 109°
2026-05-03 20:29 40.64586 -6.84258 30999 ft 522 kts 109°
2026-05-03 20:30 40.62806 -6.75002 31016 ft 522 kts 109°
2026-05-03 20:30 40.61591 -6.65523 31018 ft 528 kts 101°
2026-05-03 20:31 40.60820 -6.55981 31015 ft 527 kts 102°
2026-05-03 20:31 40.59852 -6.46415 30979 ft 528 kts 101°
2026-05-03 20:32 40.58991 -6.36827 30999 ft 528 kts 101°
2026-05-03 20:32 40.58054 -6.27249 31000 ft 528 kts 102°
2026-05-03 20:33 40.57146 -6.17671 30993 ft 528 kts 102°
2026-05-03 20:33 40.56211 -6.08089 30973 ft 528 kts 102°
2026-05-03 20:34 40.55286 -5.98606 30985 ft 526 kts 101°
2026-05-03 20:34 40.54343 -5.89062 31004 ft 527 kts 102°
2026-05-03 20:35 40.53394 -5.79516 31000 ft 525 kts 102°
2026-05-03 20:35 40.52441 -5.70025 30973 ft 518 kts 102°
2026-05-03 20:35 40.51977 -5.65394 30983 ft 503 kts 102°
2026-05-03 20:36 40.51523 -5.60902 30995 ft 489 kts 102°
2026-05-03 20:36 40.51076 -5.56534 30988 ft 475 kts 103°
2026-05-03 20:36 40.50641 -5.52293 30982 ft 462 kts 103°
2026-05-03 20:36 40.50224 -5.48222 30983 ft 450 kts 103°
2026-05-03 20:37 40.49812 -5.44212 30982 ft 437 kts 103°
2026-05-03 20:37 40.49000 -5.36412 30994 ft 427 kts 103°
2026-05-03 20:38 40.48199 -5.28712 30986 ft 425 kts 104°
2026-05-03 20:38 40.47392 -5.21024 30991 ft 424 kts 104°
2026-05-03 20:39 40.46588 -5.13387 31280 ft 418 kts 104°
2026-05-03 20:39 40.46188 -5.09614 31657 ft 416 kts 104°
2026-05-03 20:39 40.45786 -5.05859 32040 ft 414 kts 104°
2026-05-03 20:39 40.45394 -5.02184 32426 ft 411 kts 104°
2026-05-03 20:40 40.44999 -4.98482 32821 ft 407 kts 104°
2026-05-03 20:40 40.44607 -4.94819 33179 ft 403 kts 105°
2026-05-03 20:40 40.44217 -4.91207 33557 ft 398 kts 105°
2026-05-03 20:40 40.43830 -4.87628 33926 ft 393 kts 105°
2026-05-03 20:41 40.43449 -4.84104 34251 ft 386 kts 105°
2026-05-03 20:41 40.43075 -4.80652 34556 ft 378 kts 105°
2026-05-03 20:41 40.42707 -4.77272 34849 ft 369 kts 105°
2026-05-03 20:41 40.42469 -4.75086 35037 ft 362 kts 105°
2026-05-03 20:42 40.42117 -4.71866 35198 ft 353 kts 105°
2026-05-03 20:42 40.41635 -4.67560 34744 ft 364 kts 105°
2026-05-03 20:42 40.41268 -4.64272 34431 ft 372 kts 105°
2026-05-03 20:42 40.40913 -4.60954 34541 ft 362 kts 105°
2026-05-03 20:43 40.40682 -4.58810 34647 ft 354 kts 105°
2026-05-03 20:43 40.40201 -4.54544 34331 ft 358 kts 106°
2026-05-03 20:43 40.39951 -4.52379 34047 ft 365 kts 106°
2026-05-03 20:43 40.39449 -4.47962 33786 ft 364 kts 105°
2026-05-03 20:44 40.39215 -4.45788 33836 ft 363 kts 105°
2026-05-03 20:44 40.38485 -4.39204 33746 ft 366 kts 106°
2026-05-03 20:45 40.37610 -4.31496 33707 ft 369 kts 105°
2026-05-03 20:45 40.36977 -4.25909 33738 ft 371 kts 106°
2026-05-03 20:46 40.35891 -4.19345 33758 ft 369 kts 111°
2026-05-03 20:46 40.34758 -4.12800 33776 ft 372 kts 111°
2026-05-03 20:47 40.33591 -4.06129 33765 ft 379 kts 111°
2026-05-03 20:47 40.32400 -3.99330 33772 ft 387 kts 110°
2026-05-03 20:48 40.31177 -3.92380 33798 ft 396 kts 110°
2026-05-03 20:48 40.29919 -3.85259 33806 ft 407 kts 110°
2026-05-03 20:49 40.28617 -3.77916 33792 ft 420 kts 110°
2026-05-03 20:49 40.27269 -3.70341 33805 ft 434 kts 109°
2026-05-03 20:50 40.25880 -3.62563 33796 ft 446 kts 109°
2026-05-03 20:50 40.24464 -3.54657 33789 ft 447 kts 109°
2026-05-03 20:51 40.23038 -3.46749 33788 ft 445 kts 109°
2026-05-03 20:51 40.21614 -3.38877 33774 ft 444 kts 109°
2026-05-03 20:52 40.20191 -3.31047 33767 ft 443 kts 109°
2026-05-03 20:52 40.18759 -3.23202 33770 ft 444 kts 109°
2026-05-03 20:53 40.17331 -3.15404 33777 ft 444 kts 109°
2026-05-03 20:53 40.15887 -3.07560 33777 ft 444 kts 109°
2026-05-03 20:54 40.14440 -2.99724 33791 ft 443 kts 109°
2026-05-03 20:54 40.12969 -2.91814 33804 ft 455 kts 109°
2026-05-03 20:54 40.12214 -2.87757 33816 ft 463 kts 109°
2026-05-03 20:55 40.10674 -2.79496 33810 ft 479 kts 109°
2026-05-03 20:55 40.09061 -2.70897 33810 ft 495 kts 109°
2026-05-03 20:56 40.07394 -2.62038 33801 ft 510 kts 108°
2026-05-03 20:56 40.05667 -2.52906 33824 ft 526 kts 108°
2026-05-03 20:57 40.03880 -2.43507 33806 ft 542 kts 108°
2026-05-03 20:57 40.02031 -2.33827 33834 ft 557 kts 108°
2026-05-03 20:58 40.00140 -2.23957 33807 ft 558 kts 108°
2026-05-03 20:58 39.99210 -2.19106 33804 ft 545 kts 108°
2026-05-03 20:58 39.98198 -2.14466 33805 ft 535 kts 111°
2026-05-03 20:59 39.96049 -2.05217 33737 ft 532 kts 111°
2026-05-03 20:59 39.94984 -2.00610 33515 ft 530 kts 111°
2026-05-03 20:59 39.93915 -1.96024 33239 ft 528 kts 111°
2026-05-03 21:00 39.92847 -1.91461 32970 ft 526 kts 111°
2026-05-03 21:00 39.92139 -1.88445 32770 ft 526 kts 111°
2026-05-03 21:00 39.90717 -1.82360 32423 ft 524 kts 111°
2026-05-03 21:00 39.89652 -1.77818 32177 ft 524 kts 111°
2026-05-03 21:01 39.88585 -1.73288 31925 ft 523 kts 111°
2026-05-03 21:01 39.87518 -1.68766 31677 ft 521 kts 111°
2026-05-03 21:01 39.86472 -1.64331 31429 ft 519 kts 111°
2026-05-03 21:01 39.85413 -1.59854 31189 ft 516 kts 111°
2026-05-03 21:02 39.84357 -1.55402 30939 ft 514 kts 111°
2026-05-03 21:02 39.83303 -1.50969 30679 ft 512 kts 111°
2026-05-03 21:02 39.82255 -1.46563 30433 ft 509 kts 111°
2026-05-03 21:02 39.81210 -1.42179 30192 ft 506 kts 111°
2026-05-03 21:03 39.80170 -1.37825 30005 ft 502 kts 111°
2026-05-03 21:03 39.79133 -1.33497 30011 ft 502 kts 111°
2026-05-03 21:03 39.76366 -1.25465 30008 ft 473 kts 131°
2026-05-03 21:04 39.74251 -1.22347 29998 ft 449 kts 144°
2026-05-03 21:04 39.71792 -1.20048 30000 ft 425 kts 158°
2026-05-03 21:04 39.69131 -1.18666 30003 ft 400 kts 173°
2026-05-03 21:04 39.66455 -1.18103 29980 ft 382 kts 180°
2026-05-03 21:05 39.63848 -1.17808 29974 ft 370 kts 180°
2026-05-03 21:05 39.61312 -1.17464 29986 ft 366 kts 178°
2026-05-03 21:05 39.56336 -1.16023 30001 ft 371 kts 163°
2026-05-03 21:06 39.54058 -1.14316 30019 ft 388 kts 146°
2026-05-03 21:06 39.52198 -1.11702 30026 ft 404 kts 128°
2026-05-03 21:06 39.50914 -1.08431 30034 ft 413 kts 116°
2026-05-03 21:06 39.49951 -1.04922 30026 ft 414 kts 113°
2026-05-03 21:07 39.47790 -0.98119 30027 ft 408 kts 126°
2026-05-03 21:07 39.44796 -0.91936 30024 ft 405 kts 128°
2026-05-03 21:08 39.42021 -0.85543 29890 ft 408 kts 124°
2026-05-03 21:08 39.40653 -0.82343 29784 ft 406 kts 126°
2026-05-03 21:08 39.39229 -0.79197 29670 ft 405 kts 126°
2026-05-03 21:09 39.37817 -0.76059 29544 ft 404 kts 126°
2026-05-03 21:09 39.36432 -0.72895 29433 ft 404 kts 125°
2026-05-03 21:09 39.35048 -0.69731 29314 ft 404 kts 126°
2026-05-03 21:09 39.33651 -0.66584 29184 ft 404 kts 126°
2026-05-03 21:10 39.32249 -0.63442 29068 ft 404 kts 126°
2026-05-03 21:10 39.30875 -0.60343 28958 ft 403 kts 126°
2026-05-03 21:10 39.29483 -0.57198 28848 ft 403 kts 126°
2026-05-03 21:10 39.28301 -0.53914 28771 ft 409 kts 109°
2026-05-03 21:11 39.27866 -0.50251 28737 ft 418 kts 91°
2026-05-03 21:11 39.28145 -0.46509 28680 ft 420 kts 81°
2026-05-03 21:11 39.28708 -0.42808 28539 ft 421 kts 79°
2026-05-03 21:11 39.29212 -0.39097 28356 ft 418 kts 86°
2026-05-03 21:12 39.29417 -0.35371 28192 ft 415 kts 91°
2026-05-03 21:12 39.29468 -0.31653 28005 ft 414 kts 91°
2026-05-03 21:12 39.29597 -0.27986 27833 ft 414 kts 88°
2026-05-03 21:12 39.29851 -0.24289 27657 ft 413 kts 87°
2026-05-03 21:13 39.30084 -0.20607 27479 ft 411 kts 89°
2026-05-03 21:13 39.30250 -0.16934 27290 ft 409 kts 89°
2026-05-03 21:13 39.30411 -0.13268 27121 ft 408 kts 89°
2026-05-03 21:13 39.30604 -0.09622 26944 ft 407 kts 88°
2026-05-03 21:14 39.30801 -0.05987 26768 ft 405 kts 89°
2026-05-03 21:14 39.30982 -0.02364 26591 ft 404 kts 89°
2026-05-03 21:14 39.31154 0.01249 26414 ft 402 kts 89°
2026-05-03 21:14 39.31329 0.04792 26221 ft 400 kts 89°
2026-05-03 21:15 39.31509 0.08374 26058 ft 399 kts 89°
2026-05-03 21:15 39.31684 0.11936 25886 ft 397 kts 89°
2026-05-03 21:15 39.31856 0.15492 25709 ft 396 kts 89°
2026-05-03 21:15 39.32026 0.19039 25543 ft 395 kts 89°
2026-05-03 21:16 39.32196 0.22572 25379 ft 393 kts 89°
2026-05-03 21:16 39.32364 0.26087 25195 ft 392 kts 89°
2026-05-03 21:16 39.32531 0.29597 25037 ft 391 kts 89°
2026-05-03 21:16 39.32695 0.33092 24873 ft 390 kts 89°
2026-05-03 21:17 39.32856 0.36536 24704 ft 388 kts 89°
2026-05-03 21:17 39.32966 0.38888 24585 ft 387 kts 89°
2026-05-03 21:17 39.33178 0.43466 24371 ft 385 kts 89°
2026-05-03 21:17 39.33336 0.46905 24197 ft 383 kts 89°
2026-05-03 21:18 39.33492 0.50337 24049 ft 382 kts 89°
2026-05-03 21:18 39.33646 0.53754 23890 ft 380 kts 89°
2026-05-03 21:18 39.33800 0.57158 23727 ft 379 kts 89°
2026-05-03 21:18 39.33950 0.60512 23566 ft 378 kts 90°
2026-05-03 21:19 39.34100 0.63892 23387 ft 377 kts 90°
2026-05-03 21:19 39.34249 0.67271 23174 ft 376 kts 90°
2026-05-03 21:19 39.34397 0.70636 23003 ft 375 kts 90°
2026-05-03 21:19 39.34543 0.73978 23003 ft 373 kts 90°
2026-05-03 21:20 39.34687 0.77328 22988 ft 373 kts 90°
2026-05-03 21:20 39.34830 0.80669 23002 ft 373 kts 90°
2026-05-03 21:20 39.34974 0.84020 23001 ft 373 kts 89°
2026-05-03 21:20 39.35114 0.87311 23004 ft 372 kts 90°
2026-05-03 21:21 39.35255 0.90703 23011 ft 385 kts 90°
2026-05-03 21:21 39.35400 0.94235 23025 ft 402 kts 89°
2026-05-03 21:21 39.35553 0.97913 23023 ft 420 kts 89°
2026-05-03 21:21 39.35713 1.01759 23029 ft 437 kts 89°
2026-05-03 21:22 39.35877 1.05755 23031 ft 454 kts 89°
2026-05-03 21:22 39.36045 1.09906 23018 ft 471 kts 89°
2026-05-03 21:22 39.36217 1.14202 23016 ft 485 kts 89°
2026-05-03 21:22 39.36390 1.18508 23011 ft 488 kts 89°
2026-05-03 21:23 39.36565 1.22891 23010 ft 489 kts 89°
2026-05-03 21:23 39.36735 1.27277 23005 ft 489 kts 89°
2026-05-03 21:23 39.36903 1.31665 23007 ft 489 kts 89°
2026-05-03 21:23 39.37071 1.36051 23008 ft 489 kts 89°
2026-05-03 21:24 39.37238 1.40434 23007 ft 489 kts 89°
2026-05-03 21:24 39.37404 1.44831 23009 ft 489 kts 89°
2026-05-03 21:24 39.37569 1.49213 23003 ft 489 kts 89°
2026-05-03 21:24 39.37735 1.53609 22994 ft 489 kts 89°
2026-05-03 21:25 39.37898 1.57941 22994 ft 489 kts 89°
2026-05-03 21:25 39.38102 1.62333 22996 ft 490 kts 84°
2026-05-03 21:25 39.38827 1.66647 23012 ft 493 kts 74°
2026-05-03 21:25 39.39960 1.70815 23010 ft 488 kts 69°
2026-05-03 21:26 39.41244 1.74812 23000 ft 473 kts 66°
2026-05-03 21:26 39.42767 1.78502 22998 ft 460 kts 58°
2026-05-03 21:26 39.44539 1.81930 22992 ft 457 kts 54°
2026-05-03 21:26 39.46386 1.85208 22996 ft 455 kts 53°
2026-05-03 21:27 39.48266 1.88434 23006 ft 442 kts 52°
2026-05-03 21:27 39.50103 1.91546 22983 ft 428 kts 52°
2026-05-03 21:27 39.51884 1.94548 22992 ft 414 kts 52°
2026-05-03 21:27 39.53616 1.97460 22990 ft 401 kts 52°
2026-05-03 21:28 39.55294 2.00282 22990 ft 389 kts 52°
2026-05-03 21:28 39.56857 2.03083 22998 ft 380 kts 55°
2026-05-03 21:28 39.58352 2.05885 22991 ft 378 kts 56°
2026-05-03 21:28 39.59686 2.08800 22996 ft 376 kts 64°
2026-05-03 21:29 39.60825 2.11800 22996 ft 375 kts 65°
2026-05-03 21:29 39.61941 2.14851 22844 ft 377 kts 65°
2026-05-03 21:29 39.63072 2.17987 21970 ft 392 kts 65°
2026-05-03 21:29 39.64240 2.21252 21124 ft 404 kts 66°
2026-05-03 21:30 39.65433 2.24607 20325 ft 415 kts 66°
2026-05-03 21:30 39.66653 2.28052 19552 ft 425 kts 66°
2026-05-03 21:30 39.67895 2.31577 18789 ft 433 kts 66°
2026-05-03 21:30 39.69151 2.35162 18010 ft 440 kts 66°
2026-05-03 21:31 39.70420 2.38805 17157 ft 446 kts 66°
2026-05-03 21:31 39.71683 2.42443 16351 ft 450 kts 66°
2026-05-03 21:31 39.72971 2.46164 15560 ft 454 kts 66°
2026-05-03 21:31 39.74265 2.49917 14749 ft 457 kts 66°
2026-05-03 21:32 39.75566 2.53700 13987 ft 459 kts 66°
2026-05-03 21:32 39.76865 2.57490 13152 ft 460 kts 66°
2026-05-03 21:32 39.78164 2.61289 12308 ft 460 kts 66°
2026-05-03 21:32 39.79461 2.65089 11485 ft 459 kts 66°
2026-05-03 21:33 39.80752 2.68875 10682 ft 458 kts 66°
2026-05-03 21:33 39.82016 2.72592 10176 ft 450 kts 66°
2026-05-03 21:33 39.83260 2.76253 10028 ft 433 kts 66°
2026-05-03 21:33 39.84451 2.79759 10011 ft 414 kts 66°
2026-05-03 21:34 39.85585 2.83113 9988 ft 397 kts 66°
2026-05-03 21:34 39.86674 2.86339 9967 ft 382 kts 66°
2026-05-03 21:34 39.87716 2.89437 9988 ft 367 kts 66°
2026-05-03 21:34 39.88716 2.92415 9996 ft 353 kts 66°
2026-05-03 21:35 39.89680 2.95296 9991 ft 341 kts 66°
2026-05-03 21:35 39.90603 2.98041 9990 ft 329 kts 66°
2026-05-03 21:35 39.91505 3.00733 9977 ft 319 kts 66°
2026-05-03 21:35 39.92379 3.03335 9966 ft 310 kts 66°
2026-05-03 21:36 39.93267 3.05989 9992 ft 331 kts 66°
2026-05-03 21:36 39.94214 3.08828 10014 ft 348 kts 66°
2026-05-03 21:36 39.95173 3.11717 10009 ft 349 kts 66°
2026-05-03 21:36 39.96138 3.14631 10014 ft 351 kts 66°
2026-05-03 21:37 39.97105 3.17553 10008 ft 351 kts 66°
2026-05-03 21:37 39.98059 3.20438 10008 ft 351 kts 66°
2026-05-03 21:37 39.99025 3.23358 10006 ft 350 kts 66°
2026-05-03 21:37 39.99988 3.26270 10009 ft 350 kts 66°
2026-05-03 21:38 40.00953 3.29184 10007 ft 350 kts 66°
2026-05-03 21:38 40.01916 3.32093 10002 ft 349 kts 66°
2026-05-03 21:38 40.02878 3.35001 10008 ft 350 kts 66°
2026-05-03 21:38 40.03841 3.37917 10011 ft 349 kts 66°
2026-05-03 21:39 40.04803 3.40828 10007 ft 349 kts 66°
2026-05-03 21:39 40.05764 3.43738 10009 ft 350 kts 66°
2026-05-03 21:39 40.06727 3.46651 10009 ft 349 kts 66°
2026-05-03 21:39 40.07674 3.49520 9996 ft 348 kts 66°
2026-05-03 21:40 40.08631 3.52419 10003 ft 348 kts 66°
2026-05-03 21:40 40.09591 3.55327 10005 ft 349 kts 66°
2026-05-03 21:40 40.10553 3.58242 10004 ft 349 kts 66°
2026-05-03 21:40 40.11517 3.61161 10008 ft 350 kts 66°
2026-05-03 21:41 40.12481 3.64077 10010 ft 350 kts 66°
2026-05-03 21:41 40.13442 3.66987 10010 ft 349 kts 66°
2026-05-03 21:41 40.14395 3.69866 10010 ft 350 kts 66°
2026-05-03 21:41 40.15358 3.72782 10008 ft 350 kts 66°
2026-05-03 21:42 40.16319 3.75693 10007 ft 349 kts 66°
2026-05-03 21:42 40.17283 3.78612 10007 ft 349 kts 66°
2026-05-03 21:42 40.18243 3.81520 10001 ft 348 kts 66°
2026-05-03 21:42 40.19204 3.84423 10003 ft 347 kts 67°
2026-05-03 21:43 40.20171 3.87319 10002 ft 347 kts 66°
2026-05-03 21:43 40.21145 3.90212 10003 ft 347 kts 66°
2026-05-03 21:43 40.22115 3.93095 10002 ft 347 kts 66°
2026-05-03 21:43 40.23075 3.95952 9999 ft 347 kts 66°
2026-05-03 21:44 40.24046 3.98841 10000 ft 347 kts 66°
2026-05-03 21:44 40.25017 4.01729 9999 ft 347 kts 66°
2026-05-03 21:44 40.25988 4.04620 9999 ft 347 kts 66°
2026-05-03 21:44 40.26960 4.07513 10003 ft 348 kts 66°
2026-05-03 21:45 40.27594 4.10545 10017 ft 346 kts 88°
2026-05-03 21:45 40.27350 4.13639 10020 ft 342 kts 110°
2026-05-03 21:45 40.26266 4.16365 10021 ft 335 kts 133°
2026-05-03 21:45 40.24550 4.18292 10022 ft 327 kts 155°
2026-05-03 21:46 40.22434 4.19209 10024 ft 320 kts 178°
2026-05-03 21:46 40.20256 4.18975 10028 ft 312 kts 201°
2026-05-03 21:46 40.18398 4.17668 10025 ft 297 kts 224°
2026-05-03 21:46 40.17210 4.15581 10025 ft 281 kts 249°
2026-05-03 21:47 40.16885 4.13161 10017 ft 262 kts 272°
2026-05-03 21:47 40.17087 4.10891 9977 ft 240 kts 277°
2026-05-03 21:47 40.17367 4.08848 9963 ft 217 kts 278°
2026-05-03 21:47 40.17633 4.07000 9933 ft 197 kts 278°
2026-05-03 21:48 40.17876 4.05322 9718 ft 187 kts 278°
2026-05-03 21:48 40.18125 4.03580 9535 ft 205 kts 278°
2026-05-03 21:48 40.18289 4.01621 9733 ft 232 kts 268°
2026-05-03 21:48 40.18124 3.99406 9998 ft 253 kts 258°
2026-05-03 21:49 40.17643 3.97181 10035 ft 254 kts 248°
2026-05-03 21:49 40.16837 3.95124 10043 ft 255 kts 237°
2026-05-03 21:49 40.15779 3.93218 10048 ft 258 kts 234°
2026-05-03 21:49 40.14761 3.91421 9845 ft 249 kts 236°
2026-05-03 21:50 40.13786 3.89561 9386 ft 244 kts 237°
2026-05-03 21:50 40.12841 3.87722 8930 ft 243 kts 237°
2026-05-03 21:50 40.11890 3.85896 8450 ft 243 kts 236°
2026-05-03 21:50 40.10951 3.84072 7958 ft 241 kts 237°
2026-05-03 21:51 40.10021 3.82254 7437 ft 239 kts 237°
2026-05-03 21:51 40.09108 3.80441 6947 ft 239 kts 237°
2026-05-03 21:51 40.08200 3.78636 6435 ft 236 kts 236°
2026-05-03 21:51 40.07308 3.76873 5905 ft 235 kts 236°
2026-05-03 21:52 40.06404 3.75089 5361 ft 236 kts 236°
2026-05-03 21:52 40.05509 3.73321 4835 ft 232 kts 236°
2026-05-03 21:52 40.04616 3.71558 4286 ft 231 kts 235°
2026-05-03 21:52 40.03743 3.69832 3993 ft 227 kts 235°
2026-05-03 21:53 40.02867 3.68111 3997 ft 229 kts 236°
2026-05-03 21:53 40.02015 3.66430 3985 ft 209 kts 235°
2026-05-03 21:53 40.01276 3.64968 3976 ft 178 kts 235°
2026-05-03 21:53 40.00639 3.63715 3960 ft 156 kts 235°
2026-05-03 21:54 40.00049 3.62554 3967 ft 152 kts 234°
2026-05-03 21:54 39.99475 3.61431 3973 ft 151 kts 234°
2026-05-03 21:54 39.98900 3.60293 3990 ft 148 kts 234°
2026-05-03 21:54 39.98329 3.59175 3991 ft 149 kts 234°
2026-05-03 21:55 39.97754 3.58046 3997 ft 150 kts 234°
2026-05-03 21:55 39.97169 3.56894 3978 ft 153 kts 234°
2026-05-03 21:55 39.96572 3.55727 3985 ft 154 kts 233°
2026-05-03 21:55 39.95977 3.54556 3994 ft 156 kts 234°
2026-05-03 21:56 39.95379 3.53384 3989 ft 155 kts 234°
2026-05-03 21:56 39.94789 3.52227 3991 ft 155 kts 233°
2026-05-03 21:56 39.94193 3.51054 4009 ft 156 kts 234°
2026-05-03 21:56 39.93594 3.49883 4014 ft 156 kts 234°
2026-05-03 21:57 39.92996 3.48714 4000 ft 154 kts 234°
2026-05-03 21:57 39.92361 3.47471 4040 ft 180 kts 234°
2026-05-03 21:57 39.91599 3.45985 4187 ft 212 kts 234°
2026-05-03 21:57 39.90751 3.44323 4580 ft 228 kts 235°
2026-05-03 21:58 39.89844 3.42546 4932 ft 243 kts 236°
2026-05-03 21:58 39.88896 3.40690 4850 ft 252 kts 235°
2026-05-03 21:58 39.87939 3.38819 4556 ft 246 kts 235°
2026-05-03 21:58 39.86990 3.36965 4228 ft 245 kts 235°
2026-05-03 21:59 39.86055 3.35141 3990 ft 240 kts 234°
2026-05-03 21:59 39.85120 3.33319 4011 ft 244 kts 234°
2026-05-03 21:59 39.84173 3.31475 4011 ft 249 kts 234°
2026-05-03 21:59 39.83188 3.29559 4012 ft 258 kts 234°
2026-05-03 22:00 39.82187 3.27608 4013 ft 260 kts 234°
2026-05-03 22:00 39.81183 3.25653 4017 ft 260 kts 234°
2026-05-03 22:00 39.80192 3.23725 4017 ft 260 kts 234°
2026-05-03 22:00 39.79187 3.21775 4013 ft 254 kts 234°
2026-05-03 22:01 39.78269 3.19985 3985 ft 222 kts 234°
2026-05-03 22:01 39.77475 3.18438 3974 ft 191 kts 233°
2026-05-03 22:01 39.76778 3.17089 3959 ft 169 kts 234°
2026-05-03 22:01 39.76149 3.15873 3864 ft 158 kts 233°
2026-05-03 22:02 39.75541 3.14694 3706 ft 155 kts 233°
2026-05-03 22:02 39.74943 3.13537 3676 ft 153 kts 232°
2026-05-03 22:02 39.74365 3.12418 3804 ft 151 kts 233°
2026-05-03 22:02 39.73773 3.11277 3944 ft 153 kts 233°
2026-05-03 22:03 39.73184 3.10136 4008 ft 153 kts 232°
2026-05-03 22:03 39.72597 3.09001 3994 ft 153 kts 232°
2026-05-03 22:03 39.72006 3.07856 3991 ft 153 kts 233°
2026-05-03 22:03 39.71424 3.06731 3994 ft 152 kts 233°
2026-05-03 22:04 39.70834 3.05591 4010 ft 152 kts 233°
2026-05-03 22:04 39.70245 3.04456 3994 ft 151 kts 234°
2026-05-03 22:04 39.69666 3.03337 3996 ft 151 kts 234°
2026-05-03 22:04 39.69085 3.02212 4001 ft 150 kts 234°
2026-05-03 22:05 39.68495 3.01075 3995 ft 152 kts 234°
2026-05-03 22:05 39.67910 2.99945 3995 ft 151 kts 234°
2026-05-03 22:05 39.67322 2.98808 3994 ft 152 kts 233°
2026-05-03 22:05 39.66733 2.97676 3991 ft 151 kts 234°
2026-05-03 22:06 39.66148 2.96546 4001 ft 151 kts 234°
2026-05-03 22:06 39.65561 2.95420 3993 ft 151 kts 234°
2026-05-03 22:06 39.64971 2.94281 3993 ft 152 kts 234°
2026-05-03 22:06 39.64392 2.93164 3996 ft 151 kts 234°
2026-05-03 22:07 39.63797 2.92019 3735 ft 151 kts 234°
2026-05-03 22:07 39.63218 2.90908 3473 ft 145 kts 233°
2026-05-03 22:07 39.62657 2.89825 3202 ft 144 kts 232°
2026-05-03 22:07 39.62091 2.88740 2973 ft 149 kts 232°
2026-05-03 22:08 39.61519 2.87641 2731 ft 145 kts 233°
2026-05-03 22:08 39.60957 2.86558 2476 ft 145 kts 232°
2026-05-03 22:08 39.60386 2.85466 2206 ft 146 kts 231°
2026-05-03 22:08 39.59836 2.84407 1980 ft 144 kts 231°
2026-05-03 22:09 39.59266 2.83317 1729 ft 147 kts 232°
2026-05-03 22:09 39.58700 2.82228 1471 ft 145 kts 232°
2026-05-03 22:09 39.58128 2.81136 1243 ft 147 kts 232°
2026-05-03 22:10 39.56963 2.78908 733 ft 149 kts 233°
2026-05-03 22:10 39.56385 2.77789 504 ft 152 kts 234°
2026-05-03 22:10 39.55796 2.76664 249 ft 149 kts 235°
2026-05-03 22:10 39.55246 2.75550 40 ft 141 kts 239°
2026-05-03 22:11 39.54791 2.74582 42 ft 109 kts 238°
2026-05-03 22:11 39.54573 2.74061 44 ft 33 kts 258°
2026-05-03 22:11 39.54549 2.73821 44 ft 25 kts 268°
2026-05-03 22:11 39.54600 2.73643 45 ft 19 kts 322°
2026-05-03 22:12 39.54672 2.73622 45 ft 3 kts 16°
2026-05-03 22:12 39.54685 2.73628 45 ft 1 kts 21°
2026-05-03 22:12 39.54693 2.73634 45 ft 1 kts 28°
2026-05-03 22:12 39.54701 2.73642 43 ft 2 kts 43°
2026-05-03 22:13 39.54708 2.73654 45 ft 0 kts 53°